Weather History for Baton Rouge, LA

Change the Weather History Date:

Tuesday, October 23, 2012

  Actual Average Record
Temperature  
Mean Temperature 73 °F 67 °F  
Max Temperature 84 °F 79 °F 91 °F (1939)
Min Temperature 62 °F 56 °F 37 °F (1937)
Degree Days  
Heating Degree Days 0 2  
Month to date heating degree days 14 23  
Since 1 July heating degree days 14 25  
Cooling Degree Days 8 4  
Month to date cooling degree days 116 149  
Year to date cooling degree days 2906 2720  
Growing Degree Days 22 (Base 50)    
Moisture  
Dew Point 64 °F    
Average Humidity 76    
Maximum Humidity 100    
Minimum Humidity 51    
Precipitation  
Precipitation 0.00 in 0.16 in 2.73 in (1913)
Month to date precipitation 0.40 3.47  
Year to date precipitation 54.50 49.72  
Snow  
Snow 0.00 in - - ()
Month to date snowfall 0.0  
Since 1 July snowfall 0.0  
Since 1 September snowfall 0.0  
Snow Depth 0.00 in    
Sea Level Pressure  
Sea Level Pressure 30.05 in    
Wind  
Wind Speed 5 mph (East)    
Max Wind Speed 10 mph    
Max Gust Speed 16 mph    
Visibility 4 miles    
Events Fog    
T = Trace of Precipitation, MM = Missing Value Source: NWS Daily Summary

Daily Weather History Graph

Daily Weather History Graph

Search for Another Location

Airport:

Trip Planner

Search our weather history database for the weather conditions in past years. The results will help you decide how hot, cold, wet, or windy it might be!

Date:

Astronomy

Oct. 23, 2012 Rise Set
Actual Time 7:12 AM CDT 6:24 PM CDT
Civil Twilight 6:48 AM CDT 6:48 PM CDT
Nautical Twilight 6:20 AM CDT 7:17 PM CDT
Astronomical Twilight 5:52 AM CDT 7:45 PM CDT
Moon 2:46 PM CDT (10/23) 1:29 AM CDT (10/23)
Length of Visible Light 12h 00m
Length of Day
11h 11m
Waxing Gibbous, 67% of the Moon is Illuminated
Oct 23
Waxing Gibbous
Oct 29
Full
Nov 6
Last Quarter
Nov 13
New
Nov 20
First Quarter

Hourly Weather History & Observations

Time (CDT) Temp. Heat Index Dew Point Humidity Pressure Visibility Wind Dir Wind Speed Gust Speed Precip Events Conditions
12:53 AM 66.0 °F - 64.9 °F 96% 30.05 in 8.0 mi ESE 3.5 mph - N/A   Clear
1:23 AM 66.2 °F - 64.4 °F 94% 30.05 in 1.8 mi Calm Calm - N/A   Clear
1:29 AM 64.4 °F - 64.4 °F 100% 30.05 in 2.0 mi East 3.5 mph - N/A   Partly Cloudy
1:35 AM 64.4 °F - 64.4 °F 100% 30.04 in 1.0 mi East 3.5 mph - N/A   Mist
1:43 AM 64.4 °F - 64.4 °F 100% 30.05 in 0.5 mi East 3.5 mph - N/A Fog Fog
1:53 AM 66.2 °F - 66.2 °F 100% 30.05 in 0.2 mi East 3.5 mph - N/A Fog Fog
2:14 AM 66.2 °F - 66.2 °F 100% 30.05 in 0.2 mi Calm Calm - N/A Fog Fog
2:53 AM 66.0 °F - 66.0 °F 100% 30.04 in 0.2 mi East 3.5 mph - N/A Fog Fog
3:16 AM 66.2 °F - 66.2 °F 100% 30.04 in 0.2 mi East 3.5 mph - N/A Fog Fog
3:53 AM 64.9 °F - 64.9 °F 100% 30.03 in 0.2 mi ENE 3.5 mph - N/A Fog Fog
4:33 AM 64.4 °F - 64.4 °F 100% 30.03 in 0.5 mi ENE 4.6 mph - N/A Fog Fog
4:53 AM 63.0 °F - 63.0 °F 100% 30.03 in 0.8 mi ENE 4.6 mph - N/A   Mist
5:53 AM 62.1 °F - 62.1 °F 100% 30.03 in 0.8 mi East 6.9 mph - N/A   Mist
6:00 AM 62.6 °F - 62.6 °F 100% 30.03 in 2.0 mi East 6.9 mph - N/A   Overcast
6:13 AM 62.6 °F - 62.6 °F 100% 30.04 in 1.0 mi ENE 6.9 mph - N/A   Mist
6:21 AM 62.6 °F - 62.6 °F 100% 30.04 in 0.5 mi East 6.9 mph - N/A Fog Fog
6:30 AM 62.6 °F - 62.6 °F 100% 30.04 in 0.5 mi East 5.8 mph - N/A Fog Fog
6:53 AM 63.0 °F - 63.0 °F 100% 30.05 in 0.5 mi ENE 4.6 mph - N/A Fog Fog
7:00 AM 62.6 °F - 62.6 °F 100% 30.06 in 0.2 mi Calm Calm - N/A Fog Fog
7:12 AM 62.6 °F - 62.6 °F 100% 30.06 in 0.2 mi NE 3.5 mph - N/A Fog Fog
7:44 AM 62.6 °F - 62.6 °F 100% 30.06 in 0.2 mi NE 5.8 mph - N/A Fog Fog
7:53 AM 63.0 °F - 63.0 °F 100% 30.07 in 0.1 mi NE 4.6 mph - N/A Fog Fog
7:55 AM 62.6 °F - 62.6 °F 100% 30.07 in 0.2 mi NE 4.6 mph - N/A Fog Fog
8:42 AM 64.4 °F - 64.4 °F 100% 30.08 in 0.8 mi ENE 5.8 mph - N/A   Mist
8:53 AM 64.9 °F - 64.9 °F 100% 30.08 in 0.8 mi ENE 4.6 mph - N/A   Overcast
9:02 AM 66.2 °F - 66.2 °F 100% 30.09 in 1.5 mi ENE 4.6 mph - N/A   Overcast
9:08 AM 66.2 °F - 66.2 °F 100% 30.09 in 4.0 mi ENE 5.8 mph - N/A   Overcast
9:25 AM 66.2 °F - 66.2 °F 100% 30.09 in 10.0 mi ENE 6.9 mph - N/A   Scattered Clouds
9:53 AM 69.1 °F - 66.9 °F 93% 30.09 in 10.0 mi ENE 5.8 mph - N/A   Clear
10:53 AM 77.0 °F - 66.9 °F 71% 30.08 in 10.0 mi East 5.8 mph - N/A   Clear
11:53 AM 80.1 °F 82.1 °F 66.0 °F 62% 30.07 in 10.0 mi ESE 3.5 mph - N/A   Scattered Clouds
12:53 PM 82.0 °F 83.1 °F 63.0 °F 52% 30.04 in 10.0 mi SE 3.5 mph - N/A   Scattered Clouds
1:53 PM 82.9 °F 84.0 °F 63.0 °F 51% 30.01 in 10.0 mi East 5.8 mph - N/A   Scattered Clouds
2:53 PM 82.0 °F 83.0 °F 62.1 °F 51% 30.00 in 10.0 mi SSE 3.5 mph - N/A   Scattered Clouds
3:53 PM 82.9 °F 83.7 °F 62.1 °F 49% 30.00 in 10.0 mi ESE 3.5 mph - N/A   Partly Cloudy
4:53 PM 80.1 °F 81.2 °F 62.1 °F 54% 29.99 in 10.0 mi East 5.8 mph - N/A   Partly Cloudy
5:53 PM 75.2 °F - 64.4 °F 69% 30.00 in 10.0 mi East 4.6 mph - N/A   Partly Cloudy
6:53 PM 73.9 °F - 66.0 °F 76% 30.00 in 10.0 mi East 6.9 mph - N/A   Clear
7:53 PM 73.0 °F - 66.0 °F 79% 30.02 in 10.0 mi ESE 6.9 mph - N/A   Clear
8:53 PM 72.0 °F - 66.9 °F 84% 30.03 in 10.0 mi ESE 6.9 mph - N/A   Clear
9:53 PM 70.0 °F - 68.0 °F 93% 30.04 in 10.0 mi ESE 3.5 mph - N/A   Clear
10:53 PM 69.1 °F - 66.9 °F 93% 30.04 in 10.0 mi East 3.5 mph - N/A   Clear
11:53 PM 66.9 °F - 66.0 °F 97% 30.04 in 9.0 mi East 3.5 mph - N/A   Clear